Lancaster, CA

2:24 AM PST on February 25, 2018 (GMT -0800)
Gen Fox

Weather History for KWJF - March, 2012

Change the Weather History Date:

Friday, March 30, 2012

  Actual Average Record
Temperature  
Mean Temperature 64 °F 55 °F  
Max Temperature 80 °F 70 °F 88 °F (1966)
Min Temperature 48 °F 41 °F 26 °F (1975)
Degree Days  
Heating Degree Days 1    
Month to date heating degree days 371  
Since 1 July heating degree days 2824  
Cooling Degree Days 0    
Month to date cooling degree days 0  
Year to date cooling degree days 0  
Growing Degree Days 16 (Base 50)    
Moisture  
Dew Point 40 °F    
Average Humidity 43    
Maximum Humidity 67    
Minimum Humidity 19    
Precipitation  
Precipitation 0.00 in 0.03 in 0.48 in (1978)
Month to date precipitation 0.43 1.12  
Year to date precipitation 0.84 4.40  
Since 1 July precipitation 2.19  
Snow  
Snow 0.00 in - T in (1977)
Month to date snowfall 0.0  
Since 1 July snowfall 0.0  
Snow Depth 0.00 in    
Sea Level Pressure  
Sea Level Pressure 29.95 in    
Wind  
Wind Speed 11 mph (WSW)    
Max Wind Speed 23 mph    
Max Gust Speed 28 mph    
Visibility 10 miles    
Events      
T = Trace of Precipitation, MM = Missing Value Source: NWS Daily Summary

Daily Weather History Graph

Daily Weather History Graph

Search for Another Location

Airport or City:

Trip Planner

Search our weather history database for the weather conditions in past years. The results will help you decide how hot, cold, wet, or windy it might be!

Date:

Astronomy

Mar. 30, 2012 Rise Set
Actual Time 6:41 AM PDT 7:12 PM PDT
Civil Twilight 6:16 AM PDT 7:38 PM PDT
Nautical Twilight 5:46 AM PDT 8:08 PM PDT
Astronomical Twilight 5:16 AM PDT 8:38 PM PDT
Moon 12:02 PM PDT (3/30) 1:41 AM PDT (3/30)
Length of Visible Light 13h 21m
Length of Day
12h 31m
Waxing Crescent, 50% of the Moon is Illuminated
Mar 30
Waxing Crescent
Mar 30
First Quarter
Apr 6
Full
Apr 13
Last Quarter
Apr 21
New

Hourly Weather History & Observations

Time (PDT) Temp. Dew Point Humidity Pressure Visibility Wind Dir Wind Speed Gust Speed Precip Events Conditions
12:56 AM 57.0 °F 35.1 °F 44% 30.00 in 10.0 mi West 17.3 mph - N/A   Clear
1:56 AM 55.9 °F 36.0 °F 47% 29.98 in 10.0 mi West 18.4 mph - N/A   Clear
2:56 AM 55.9 °F 37.9 °F 51% 29.96 in 10.0 mi West 19.6 mph - N/A   Clear
3:56 AM 55.0 °F 39.0 °F 55% 29.96 in 10.0 mi West 17.3 mph - N/A   Clear
4:56 AM 53.1 °F 39.9 °F 61% 29.97 in 10.0 mi West 11.5 mph - N/A   Clear
5:56 AM 53.1 °F 39.0 °F 59% 29.97 in 10.0 mi Calm Calm - N/A   Clear
6:56 AM 51.1 °F 37.0 °F 59% 29.99 in 10.0 mi SW 3.5 mph - N/A   Clear
7:56 AM 52.0 °F 37.9 °F 59% 30.01 in 10.0 mi ENE 3.5 mph - N/A   Clear
8:56 AM 59.0 °F 37.0 °F 44% 30.01 in 10.0 mi Calm Calm - N/A   Clear
9:56 AM 64.9 °F 37.0 °F 36% 30.00 in 10.0 mi Calm Calm - N/A   Clear
10:56 AM 69.1 °F 35.1 °F 29% 29.99 in 10.0 mi Calm Calm - N/A   Clear
11:56 AM 73.0 °F 35.1 °F 25% 29.96 in 10.0 mi Calm Calm - N/A   Clear
12:56 PM 75.0 °F 32.0 °F 21% 29.93 in 10.0 mi Variable 3.5 mph - N/A   Clear
1:56 PM 78.1 °F 34.0 °F 20% 29.91 in 10.0 mi Calm Calm - N/A   Clear
2:56 PM 80.1 °F 42.1 °F 26% 29.88 in 10.0 mi SW 15.0 mph 20.7 mph N/A   Clear
3:56 PM 77.0 °F 41.0 °F 28% 29.88 in 10.0 mi SW 19.6 mph - N/A   Clear
4:56 PM 75.0 °F 41.0 °F 29% 29.87 in 10.0 mi SW 21.9 mph 27.6 mph N/A   Clear
5:56 PM 72.0 °F 43.0 °F 35% 29.89 in 10.0 mi SW 17.3 mph 25.3 mph N/A   Clear
6:56 PM 66.9 °F 44.1 °F 44% 29.91 in 10.0 mi WSW 13.8 mph - N/A   Clear
7:56 PM 63.0 °F 45.0 °F 52% 29.91 in 10.0 mi WSW 19.6 mph - N/A   Clear
8:56 PM 62.1 °F 44.1 °F 52% 29.92 in 10.0 mi WSW 16.1 mph - N/A   Clear
9:56 PM 59.0 °F 45.0 °F 60% 29.94 in 10.0 mi WSW 12.7 mph - N/A   Clear
10:56 PM 57.9 °F 46.0 °F 65% 29.93 in 10.0 mi WSW 13.8 mph - N/A   Clear
11:56 PM 57.0 °F 46.0 °F 67% 29.93 in 10.0 mi WSW 17.3 mph - N/A   Clear